Air Resources Laboratory banner image
Air Resources Laboratory web site National Oceanic and Atmospheric Administration (NOAA)

ga roundup


Office: FFC

ASUS42 KFFC 231803
RWRGA
WEATHER ROUNDUP FOR GEORGIA
NATIONAL WEATHER SERVICE PEACHTREE CITY GA
200 PM EDT WED MAY 23 2018

NOTE: "FAIR" INDICATES FEW OR NO CLOUDS BELOW 12,000 FEET WITH NO
SIGNIFICANT WEATHER AND/OR OBSTRUCTIONS TO VISIBILITY.

* = USE WITH CAUTION. THE STATIONS MARKED WITH AN ASTERISK MAY NOT
REPORT WEATHER SUCH AS PRECIPITATION, FOG, OR THUNDER AND ARE NOT
QUALITY CONTROLLED BY NWS.

THE REMARK "TC" DENOTES TEMPERATURE READING IN DEGREES CELSIUS.

GAZ001>058-231900-
NORTH GEORGIA

CITY           SKY/WX    TMP DP  RH WIND       PRES   REMARKS
ATLANTA        PTSUNNY   78  67  68 N8        30.08F
6HR MIN TEMP:  70; 6HR MAX TEMP:  78; 6HR PCP:  0.01;

ATHENS         PTSUNNY   77  72  84 E5        30.08F
6HR MIN TEMP:  68; 6HR MAX TEMP:  78; 6HR PCP:  0.14;

CHAMBLEE       CLOUDY    79  69  71 NE3       30.08F
6HR MIN TEMP:  69; 6HR MAX TEMP:  79; 6HR PCP:  0.10;

PEACHTREE CITY LGT RAIN  77  73  87 NW5       30.08F
6HR MIN TEMP:  71; 6HR MAX TEMP:  78; 6HR PCP:  0.01;

ROME           FAIR      86  70  58 N9        30.07F HX  90
6HR MIN TEMP:  71; 6HR MAX TEMP:  86;

WEST ATLANTA   PTSUNNY   80  71  74 N8        30.07F
6HR MIN TEMP:  70; 6HR MAX TEMP:  81;

GAINESVILLE    PTSUNNY   77  69  76 CALM      30.12F
6HR MIN TEMP:  68; 6HR MAX TEMP:  77; 6HR PCP:  0.06;

CARTERSVILLE   PTSUNNY   82  69  64 CALM      30.08F
6HR MIN TEMP:  70; 6HR MAX TEMP:  83;



CITY           SKY/WX    TMP DP  RH WIND       PRES   REMARKS
DALTON*        FAIR      82  70  65 NW12      30.09F
LAWRENCEVILLE* PTSUNNY   75  70  84 E6        30.09F
MARIETTA       PTSUNNY   79  69  70 E9        30.08F
CANTON*        PTSUNNY   82  63  51 CALM      30.11F
BLAIRSVILLE*   PTSUNNY   78  66  66 N5        30.13F
$$

GAZ059>098-102>109-231900-
CENTRAL GEORGIA

CITY           SKY/WX    TMP DP  RH WIND       PRES   REMARKS
AUGUSTA-BUSH   LGT RAIN  81  72  74 CALM      30.07F
6HR MIN TEMP:  71; 6HR MAX TEMP:  83; 6HR PCP: TRACE;

AUGUSTA-DANIEL FAIR      84  70  62 VRB3      30.08F
6HR MIN TEMP:  71; 6HR MAX TEMP:  84; 6HR PCP: TRACE;

COLUMBUS       PTSUNNY   77  70  79 CALM      30.06F
6HR MIN TEMP:  71; 6HR MAX TEMP:  78; 6HR PCP:  0.54;

MACON          PTSUNNY   74  71  91 SW7       30.08S
6HR MIN TEMP:  72; 6HR MAX TEMP:  74; 6HR PCP:  0.49;

ROBINS AFB     PTSUNNY   74  70  88 W5        30.07F


CITY           SKY/WX    TMP DP  RH WIND       PRES   REMARKS
LAGRANGE*      PTSUNNY   84  70  62 N7        30.07F
SYLVANIA*      PTSUNNY   84  70  63 SW3       30.09F
MILLEDGEVILLE* FAIR      79  73  83 CALM      30.07F
$$

GAZ099>101-110>166-231900-
SOUTH GEORGIA

CITY           SKY/WX    TMP DP  RH WIND       PRES   REMARKS
SAVANNAH       PTSUNNY   88  69  53 S9        30.08F HX  92
6HR MIN TEMP:  73; 6HR MAX TEMP:  89;

VALDOSTA       PTSUNNY   82  71  69 VRB3      30.08F
6HR MIN TEMP:  72; 6HR MAX TEMP:  82; 6HR PCP:  0.06;

ALMA           PTSUNNY   79  71  76 SW6       30.09F
6HR MIN TEMP:  73; 6HR MAX TEMP:  85; 6HR PCP:  0.01;

ST SIMONS      FAIR      83  73  72 SE12      30.09F
6HR MIN TEMP:  76; 6HR MAX TEMP:  83;

FT STEWART     PTSUNNY   86  68  55 SW7       30.06F
ALBANY         PTSUNNY   86  71  60 S6        30.08F HX  91
HUNTER AFB     PTSUNNY   85  69  58 SE10      30.06F
MOODY AFB      PTSUNNY   81  71  71 SW9       30.08F
BRUNSWICK      FAIR      84  70  61 SE10      30.09F


CITY           SKY/WX    TMP DP  RH WIND       PRES   REMARKS
BAINBRIDGE*    FAIR      88  73  62 SE6       30.06F HX  96
MOULTRIE*      FAIR      86  70  58 S5        30.08F HX  90
VIDALIA*       LGT RAIN  81  68  65 CALM      30.08F
WAYCROSS*      CLOUDY    81  75  81 NW10      30.08F
DOUGLAS*       PTSUNNY   81  70  69 S8        30.10F
$$


ASUS42 KFFC 231810
RWRGA
WEATHER ROUNDUP FOR GEORGIA
NATIONAL WEATHER SERVICE PEACHTREE CITY GA
200 PM EDT WED MAY 23 2018

NOTE: "FAIR" INDICATES FEW OR NO CLOUDS BELOW 12,000 FEET WITH NO
SIGNIFICANT WEATHER AND/OR OBSTRUCTIONS TO VISIBILITY.

* = USE WITH CAUTION. THE STATIONS MARKED WITH AN ASTERISK MAY NOT
REPORT WEATHER SUCH AS PRECIPITATION, FOG, OR THUNDER AND ARE NOT
QUALITY CONTROLLED BY NWS.

THE REMARK "TC" DENOTES TEMPERATURE READING IN DEGREES CELSIUS.

GAZ001>058-231900-
NORTH GEORGIA

CITY           SKY/WX    TMP DP  RH WIND       PRES   REMARKS
ATLANTA        PTSUNNY   78  67  68 N8        30.08F
6HR MIN TEMP:  70; 6HR MAX TEMP:  78; 6HR PCP:  0.01;

ATHENS         PTSUNNY   77  72  84 E5        30.08F
6HR MIN TEMP:  68; 6HR MAX TEMP:  78; 6HR PCP:  0.14;

CHAMBLEE       PTSUNNY   79  69  71 NE8       30.08F
6HR MIN TEMP:  69; 6HR MAX TEMP:  79; 6HR PCP:  0.10;

PEACHTREE CITY CLOUDY    78  71  79 W6        30.08F
6HR MIN TEMP:  71; 6HR MAX TEMP:  78; 6HR PCP:  0.01;

ROME           FAIR      86  70  58 N9        30.07F HX  90
6HR MIN TEMP:  71; 6HR MAX TEMP:  86;

WEST ATLANTA   PTSUNNY   80  71  74 N8        30.07F
6HR MIN TEMP:  70; 6HR MAX TEMP:  81;

GAINESVILLE    PTSUNNY   77  69  76 CALM      30.12F
6HR MIN TEMP:  68; 6HR MAX TEMP:  77; 6HR PCP:  0.06;

CARTERSVILLE   PTSUNNY   82  69  64 CALM      30.08F
6HR MIN TEMP:  70; 6HR MAX TEMP:  83;



CITY           SKY/WX    TMP DP  RH WIND       PRES   REMARKS
DALTON*        FAIR      82  70  65 NW12      30.09F
LAWRENCEVILLE* PTSUNNY   75  70  84 E6        30.09F
MARIETTA       PTSUNNY   79  69  70 E9        30.08F
CANTON*        PTSUNNY   82  63  51 CALM      30.11F
BLAIRSVILLE*   PTSUNNY   78  66  66 N5        30.13F
$$

GAZ059>098-102>109-231900-
CENTRAL GEORGIA

CITY           SKY/WX    TMP DP  RH WIND       PRES   REMARKS
AUGUSTA-BUSH   LGT RAIN  81  72  74 CALM      30.07F
6HR MIN TEMP:  71; 6HR MAX TEMP:  83; 6HR PCP: TRACE;

AUGUSTA-DANIEL FAIR      84  70  62 VRB3      30.08F
6HR MIN TEMP:  71; 6HR MAX TEMP:  84; 6HR PCP: TRACE;

COLUMBUS       PTSUNNY   77  70  79 CALM      30.06F
6HR MIN TEMP:  71; 6HR MAX TEMP:  78; 6HR PCP:  0.54;

MACON          PTSUNNY   74  71  91 SW7       30.08S
6HR MIN TEMP:  72; 6HR MAX TEMP:  74; 6HR PCP:  0.49;

ROBINS AFB     PTSUNNY   74  70  88 W5        30.07F


CITY           SKY/WX    TMP DP  RH WIND       PRES   REMARKS
LAGRANGE*      PTSUNNY   84  70  62 N7        30.07F
SYLVANIA*      PTSUNNY   84  70  63 SW3       30.09F
MILLEDGEVILLE* FAIR      79  73  83 CALM      30.07F
$$

GAZ099>101-110>166-231900-
SOUTH GEORGIA

CITY           SKY/WX    TMP DP  RH WIND       PRES   REMARKS
SAVANNAH       PTSUNNY   88  69  53 S9        30.08F HX  92
6HR MIN TEMP:  73; 6HR MAX TEMP:  89;

VALDOSTA       PTSUNNY   82  71  69 VRB3      30.08F
6HR MIN TEMP:  72; 6HR MAX TEMP:  82; 6HR PCP:  0.06;

ALMA           PTSUNNY   79  71  76 SW6       30.09F
6HR MIN TEMP:  73; 6HR MAX TEMP:  85; 6HR PCP:  0.01;

ST SIMONS      FAIR      83  73  72 SE12      30.09F
6HR MIN TEMP:  76; 6HR MAX TEMP:  83;

FT STEWART     PTSUNNY   86  68  55 SW7       30.06F
ALBANY         FAIR      86  72  62 S8        30.08F HX  92
HUNTER AFB     PTSUNNY   85  69  58 SE10      30.06F
MOODY AFB      PTSUNNY   81  71  71 SW9       30.08F
BRUNSWICK      FAIR      84  70  61 SE10      30.09F


CITY           SKY/WX    TMP DP  RH WIND       PRES   REMARKS
BAINBRIDGE*    FAIR      88  73  62 SE6       30.06F HX  96
MOULTRIE*      FAIR      86  70  58 S5        30.08F HX  90
VIDALIA*       LGT RAIN  81  68  65 CALM      30.08F
WAYCROSS*      CLOUDY    81  75  81 NW10      30.08F
DOUGLAS*       PTSUNNY   81  70  69 S8        30.10F
$$




Office: CHS ASUS42 KCHS 231812 RWRCHS Regional Weather Roundup National Weather Service Charleston SC 200 PM EDT WED MAY 23 2018 NOTE: "fair" indicates few or no clouds below 12,000 feet with no significant weather and/or obstructions to visibility. Not all stations are quality controlled. Use data with caution, especially dewpoint observations. SCZ027-030-031-034>040-042>050-231900- ...Southeast South Carolina... CITY SKY/WX TMP DP RH WIND PRES REMARKS N Charleston FAIR 87 68 52 SW13 30.08F HX 90 6HR MIN TEMP: 76; 6HR MAX TEMP: 88; 6HR PCP: TRACE; Waterfront Prk N/A 80 73 79 S10 29.94F Mount Pleasant FAIR 82 73 74 S16 30.09F Johns Island FAIR 84 72 65 S15 30.09F Pinopolis N/A 79 73 83 VRB3 30.03F Moncks Corner MOCLDY 82 66 57 SW3 30.08F Summerville MOCLDY 86 70 58 S6 30.09F HX 90 Beaufort MCAS PTSUNNY 85 72 65 SE9 30.08F HX 91 6HR MIN TEMP: 77; 6HR MAX TEMP: 88; Beaufort Arpt FAIR 82 70 65 SW9 30.09F Hilton Head Is MOSUNNY 82 72 69 S10 30.11F Walterboro MOCLDY 82 68 61 CALM 30.09F Allendale RAIN 77 72 83 N5 30.08F ...Southern Midlands and Pee Dee... CITY SKY/WX TMP DP RH WIND PRES REMARKS Georgetown FAIR 79 77 94 S6 30.10F Kingstree RAIN 72 72 100 W8G17 30.11R Orangeburg FAIR 75 69 81 CALM 30.10F 6HR MIN TEMP: 71; 6HR MAX TEMP: 79; 6HR PCP: 0.26; Barnwell FAIR 79 72 78 SE3 30.09F Aiken CLOUDY 81 68 65 S7 30.12F Manning FAIR 70 66 88 CALM 30.10F Columbia PTSUNNY 84 72 67 S10 30.06F 6HR MIN TEMP: 72; 6HR MAX TEMP: 85; 6HR PCP: TRACE; Sumter LGT RAIN 73 71 93 S6 30.07F 6HR MIN TEMP: 71; 6HR MAX TEMP: 82; 6HR PCP: 0.14; Florence FAIR 87 70 56 W8 30.07F HX 92 6HR MIN TEMP: 74; 6HR MAX TEMP: 87; Myrtle Beach PTSUNNY 76 71 85 S9 30.10F N Myrtle Beach FAIR 80 72 76 SW16G24 30.08F 6HR MIN TEMP: 75; 6HR MAX TEMP: 83; 6HR PCP: 0.03; $$ GAZ063-065-086>088-099>101-113>116-118-119-134>141-150-231900- ...Southeast Georgia... CITY SKY/WX TMP DP RH WIND PRES REMARKS Savannah Arpt PTSUNNY 88 69 53 S9 30.08F HX 92 6HR MIN TEMP: 73; 6HR MAX TEMP: 89; Hunter AAF PTSUNNY 85 69 58 SE10 30.06F 6HR MIN TEMP: 75; 6HR MAX TEMP: 86; Fort Stewart PTSUNNY 86 68 55 SW7 30.06F 6HR MIN TEMP: 71; 6HR MAX TEMP: 86; Statesboro LGT RAIN 81 70 69 S5 30.08F Sylvania MOCLDY 84 70 63 SW3 30.09F Claxton MOCLDY 84 73 68 CALM 30.08F HX 90 ...CSRA, Central and far Southeast Georgia... CITY SKY/WX TMP DP RH WIND PRES REMARKS Thomson RAIN 72 71 96 SE6 30.14F FOG Augusta-Bush LGT RAIN 81 72 74 CALM 30.07F 6HR MIN TEMP: 71; 6HR MAX TEMP: 83; 6HR PCP: TRACE; Augusta-Daniel FAIR 84 70 62 VRB3 30.08F Swainsboro FAIR 82 70 65 SW7 30.08F Vidalia LGT RAIN 81 68 65 CALM 30.08F Eastman TSTM 74 65 72 CALM 30.11R VSB 1/2 Hazlehurst N/A 85 69 57 S6 30.06F Alma PTSUNNY 79 71 76 SW6 30.09F 6HR MIN TEMP: 73; 6HR MAX TEMP: 85; 6HR PCP: 0.01; Waycross CLOUDY 81 75 81 NW10 30.08F Jesup MOCLDY 88 66 48 CALM 30.09F HX 90 Baxley CLOUDY 79 77 94 NW3 30.08F Brunswick FAIR 84 70 61 SE10 30.09F Saint Simons FAIR 83 73 72 SE12 30.09F 6HR MIN TEMP: 76; 6HR MAX TEMP: 83; $$ SCZ027-028-034-036>038-045-046-048>050-GAZ119-141-231900- ...Lake and Supplemental Coastal Observations... STATION/POSITION TIME TEMP WIND PRES WAVE SWELL AIR SEA DIR/SP/G HT/PER HT/PER/DIR (UTC) (F) (DEG/KT/KT) (MB) (FT/S) (FT/S/D) Winyah Bay 1645 77 240/ 4 1020.0 Lake Murray NOT AVBL ACE Basin NERRS 1645 86 180/ 1 1020.0 Fort Pulaski 1742 81 78 170/ 9/ 14 1019.4F Sapelo Island 1700 84 150/ 9 1019.0 $$ ANZ835-935-AMZ111-154-330-350-352-354-370-450-454-472-231900- ...C-MAN and Buoy Observations... STATION/POSITION TIME TEMP WIND PRES WAVE SWELL AIR SEA DIR/SP/G HT/PER HT/PER/DIR (UTC) (F) (DEG/KT/KT) (MB) (FT/S) (FT/S/D) Buoy 41004 1750 75 210/ 8/ 10 1019.8F 3/ 8 3/140/ 8 Buoy 41008 1750 76 77 180/ 12/ 14 1019.3F 3/ 8 2/100/ 8 Folly Beach CMAN 1700 78 200/ 15/ 17 1020.4F Capers Nearshore 1708 77 77 230/ 14/ 19 1020.4F Fripp Nearshore 1708 77 79 190/ 10/ 16 1019.5F STATION/POSITION TIME TEMP WIND PRES WAVE SWELL AIR SEA DIR/SP/G HT/PER HT/PER/DIR (UTC) (F) (DEG/KT/KT) (MB) (FT/S) (FT/S/D) 5E St. Marys GA 1800 77 N/A 2/ 8 Frying Pan Buoy 1750 76 76 210/ 16/ 17 1019.5F 3/ 8 2/120/ 8 Buoy 41025 1750 76 74 230/ 16/ 21 1018.0F 4/ 5 2/160/ 8 Cape Lookout NC 1700 220/ 12/ 16 1018.7F Buoy 41002 1750 78 220/ 8/ 10 1021.0F 3/ 8 3/120/ 8 Buoy 41010 1750 78 79 120/ 6/ 8 1020.6F 4/ 8 3/110/ 8 St Augustine FL 1800 77 79 120/ 10/ 11 1019.7F $$ ASUS42 KCHS 231827 RWRCHS Regional Weather Roundup National Weather Service Charleston SC 200 PM EDT WED MAY 23 2018 NOTE: "fair" indicates few or no clouds below 12,000 feet with no significant weather and/or obstructions to visibility. Not all stations are quality controlled. Use data with caution, especially dewpoint observations. SCZ027-030-031-034>040-042>050-231900- ...Southeast South Carolina... CITY SKY/WX TMP DP RH WIND PRES REMARKS N Charleston FAIR 87 68 52 SW13 30.08F HX 90 6HR MIN TEMP: 76; 6HR MAX TEMP: 88; 6HR PCP: TRACE; Waterfront Prk N/A 80 73 79 S10 29.94F Mount Pleasant FAIR 84 72 65 S14G20 30.09F Johns Island FAIR 84 70 61 S16 30.09F Pinopolis N/A 79 73 83 VRB3 30.03F Moncks Corner MOCLDY 81 68 65 N7 30.08F Summerville FAIR 86 68 54 SW3 30.08F Beaufort MCAS PTSUNNY 85 72 65 SE9 30.08F HX 91 6HR MIN TEMP: 77; 6HR MAX TEMP: 88; Beaufort Arpt FAIR 84 72 65 SE8 30.08F Hilton Head Is MOSUNNY 82 72 69 S10 30.11F Walterboro FAIR 86 70 58 W6 30.08F HX 90 Allendale LGT RAIN 77 73 88 CALM 30.08F ...Southern Midlands and Pee Dee... CITY SKY/WX TMP DP RH WIND PRES REMARKS Georgetown MOCLDY 79 77 94 SW14 30.10F Kingstree LGT RAIN 72 70 94 CALM 30.09F Orangeburg FAIR 75 69 81 CALM 30.10F 6HR MIN TEMP: 71; 6HR MAX TEMP: 79; 6HR PCP: 0.26; Barnwell FAIR 81 72 74 CALM 30.08F Aiken CLOUDY 81 68 65 SW8 30.12F Manning FAIR 70 66 88 CALM 30.10F Columbia PTSUNNY 84 72 67 S10 30.06F 6HR MIN TEMP: 72; 6HR MAX TEMP: 85; 6HR PCP: TRACE; Sumter PTSUNNY 73 70 88 S6 30.06F 6HR MIN TEMP: 71; 6HR MAX TEMP: 82; 6HR PCP: 0.14; Florence FAIR 87 70 56 W8 30.07F HX 92 6HR MIN TEMP: 74; 6HR MAX TEMP: 87; Myrtle Beach PTSUNNY 76 71 85 S9 30.10F N Myrtle Beach FAIR 81 71 71 SW16 30.08S 6HR MIN TEMP: 75; 6HR MAX TEMP: 83; 6HR PCP: 0.03; $$ GAZ063-065-086>088-099>101-113>116-118-119-134>141-150-231900- ...Southeast Georgia... CITY SKY/WX TMP DP RH WIND PRES REMARKS Savannah Arpt PTSUNNY 88 69 53 S9 30.08F HX 92 6HR MIN TEMP: 73; 6HR MAX TEMP: 89; Hunter AAF PTSUNNY 85 69 58 SE10 30.06F 6HR MIN TEMP: 75; 6HR MAX TEMP: 86; Fort Stewart PTSUNNY 86 68 55 SW7 30.06F 6HR MIN TEMP: 71; 6HR MAX TEMP: 86; Statesboro DRIZZLE 82 71 69 CALM 30.08F Sylvania DRIZZLE 82 72 72 W8 30.09S Claxton MOCLDY 86 71 62 NE3 30.07F HX 91 ...CSRA, Central and far Southeast Georgia... CITY SKY/WX TMP DP RH WIND PRES REMARKS Thomson LGT RAIN 71 70 96 CALM 30.14F Augusta-Bush LGT RAIN 81 72 74 CALM 30.07F 6HR MIN TEMP: 71; 6HR MAX TEMP: 83; 6HR PCP: TRACE; Augusta-Daniel LGT RAIN 78 71 79 SE3 30.08F Swainsboro FAIR 84 70 61 S7 30.08F Vidalia PTSUNNY 82 70 65 SW7 30.08S Eastman MOCLDY 75 66 73 E5 30.11R Hazlehurst N/A 85 68 56 CALM 30.06F Alma PTSUNNY 79 71 76 SW6 30.09F 6HR MIN TEMP: 73; 6HR MAX TEMP: 85; 6HR PCP: 0.01; Waycross CLOUDY 78 75 90 W7 30.08F Jesup MOCLDY 88 66 48 CALM 30.09F HX 90 Baxley PTSUNNY 81 77 89 CALM 30.07F Brunswick LGT RAIN 82 70 65 SE10 30.09F Saint Simons FAIR 83 73 72 SE12 30.09F 6HR MIN TEMP: 76; 6HR MAX TEMP: 83; $$ SCZ027-028-034-036>038-045-046-048>050-GAZ119-141-231900- ...Lake and Supplemental Coastal Observations... STATION/POSITION TIME TEMP WIND PRES WAVE SWELL AIR SEA DIR/SP/G HT/PER HT/PER/DIR (UTC) (F) (DEG/KT/KT) (MB) (FT/S) (FT/S/D) Winyah Bay 1745 80 200/ 6 1019.0F Lake Murray NOT AVBL ACE Basin NERRS 1730 84 160/ 2 1019.0F Fort Pulaski 1800 81 78 180/ 6/ 11 1019.2 Sapelo Island 1800 85 160/ 12 1019.0 $$ ANZ835-935-AMZ111-154-330-350-352-354-370-450-454-472-231900- ...C-MAN and Buoy Observations... STATION/POSITION TIME TEMP WIND PRES WAVE SWELL AIR SEA DIR/SP/G HT/PER HT/PER/DIR (UTC) (F) (DEG/KT/KT) (MB) (FT/S) (FT/S/D) Buoy 41004 1800 75 220/ 10/ 12 1019.7 Buoy 41008 1750 76 77 180/ 12/ 14 1019.3F 3/ 8 2/100/ 8 Folly Beach CMAN 1800 78 190/ 17/ 18 1019.9F Capers Nearshore 1808 77 77 220/ 16/ 19 1019.9F Fripp Nearshore 1808 77 79 200/ 10/ 16 1018.9F STATION/POSITION TIME TEMP WIND PRES WAVE SWELL AIR SEA DIR/SP/G HT/PER HT/PER/DIR (UTC) (F) (DEG/KT/KT) (MB) (FT/S) (FT/S/D) 5E St. Marys GA 1800 77 N/A 2/ 8 Frying Pan Buoy 1810 76 76 210/ 14/ 17 1019.3 Buoy 41025 1810 76 74 230/ 16/ 19 1018.0 Cape Lookout NC 1800 220/ 16/ 21 1018.2F Buoy 41002 1810 78 210/ 8/ 12 1020.8 Buoy 41010 1810 78 79 130/ 6/ 8 1020.3 St Augustine FL 1800 77 79 120/ 10/ 11 1019.7F $$